Погода Лубны

Погода Лубны : погода сейчас, прогноз погоды и архив. Всё, что Вы хотите узнать о погоде Лубны!

Поиск расширенной информации на нашем сайте:

Другие новости

Новости СМИ2

Главная страница сайта

Новости сайта

03.07.2017

Напоминаем, что на нашем специализированном сайте Метеоцентр.Азия вы можете получить высокодетализированные автоматические прогнозы погоды по пунктам России, СНГ и мира в авиационном формате (включающие направление и скорость ветра, видимость, явления погоды, количество и форму облачности, нижнюю и верхнюю границу облачности).


Погода Лубны - сегодня

Время (UTC), дата Ветер
(°,м/с) 
Видим.   Явления Облачность Т
(°С)
Тd
(°С)
f(%) Тe
(°С)
Pmin
(гПа)
dP
(гПа)
Po
(мм)
O2
(г/м3)
Тmin Tmax R s Состояние
почвы
15 21.04.18 230 (ЮЗ) 10 км    3/1 1000 м средняя, верхняя 
[Sc|Ac lent|Ci fib]
+22.5 +2.7 27 +23  1004.9  -3.6  740  275           
18 21.04.18 220 (ЮЗ) 10 км    3/0 верхняя 
[Cc]
+19.1 +2.9 34 +20  1002.9  -2.2  738  278    +23       
21 21.04.18 300 (СЗ) 10 км  {ливн. осадки}  8/0 средняя, верхняя 
[Ac trans|Ci fib]
+17.9 +8 52 +18  1003.7  0.7  739  278           
00 22.04.18 310 (СЗ) 10 км  {ливн. осадки}  ясно 
+14.1 +2.1 44 +13  1006.4  2.4  741  283      0.0     
03 22.04.18 290 (З) 10 км    ясно 
+10 -1.9 43 +10  1008.3  1.6  742  289           
06 22.04.18 300 (СЗ) 10 км    ясно 
+11.6 -0.8 42 +11  1009.2  743  287  +9.3    0.0     
09 22.04.18 270 (З) 10 км    5/5 1000 м 
[Cu med, cong]
+14.9 -2.9 29 +14  1008.8  -0.2  743  284           
12 22.04.18 300 (СЗ) 10 км    8/8 600 м 
[Cu med, cong]
+15.4 -2.7 29 +15  1008.6  -0.1  743  283           
15 22.04.18 300 (СЗ) 10 км    8/8 600 м кучево-дожд. 
[Cb cap]
+15.9 -2.6 28 +15  1008  -0.6  742  283           
21 22.04.18 300 (СЗ) 10 км    8/0 средняя 
[Ac As]
+11.3 +1.7 52 +11  1011.5  1.2  744  288           
00 23.04.18 270 (З) 10 км    ясно 
+8.9 +0.2 54 +9  1012.1  0.5  745  291           
03 23.04.18 270 (З) 10 км    ясно 
+5.5 +1.2 74 +5  1013.3  0.9  745  294           
06 23.04.18 330 (СЗ) 10 км    ясно 
+9.1 +2.2 62 +9  1014.5  1.5  747  291  +5.4         
09 23.04.18 330 (СЗ) 10 км    4/4 1000 м 
[Cu med, cong]
+12.8 +0 41 +13  1014.6  0.3  747  287           
12 23.04.18 250 (З) 10 км    8/8 1000 м 
[Cu med, cong]
+14.3 -1.7 33 +14  1014.4  -0.1  747  286           
18 23.04.18 360 (С) 10 км    ясно 
+10.9 -2 40 +11  1015.6  0.9  747  290    +15.2       
21 23.04.18 090 (В) 10 км    ясно 
+7.1 -1 56 +8  1016.1  0.3  748  294           
00 24.04.18 090 (В) 10 км    ясно 
+6.7 -0.9 58 +8  1016.3  0.1  748  294           
03 24.04.18 100 (В) 10 км    5/0 средняя, верхняя 
[Ac trans|Ci fib]
+6 -1.2 60 +7  1015.8  -0.5  747  295           
06 24.04.18 110 (В) 10 км    8/0 средняя, верхняя 
[Ac trans|Ci fib]
+11.1 +1.1 50 +11  1014.7  -0.7  747  289  +6         
09 24.04.18 320 (СЗ) 10 км    10/0 средняя 
[Ac und]
+15.7 +1.4 38 +16  1013.1  -1.3  746  284           
12 24.04.18 110 (В) 10 км  слаб. ливневой дождь  10/8 600 м кучево-дожд., средняя 
[Cb cap|Ac und]
+14.7 +5.7 55 +15  1012.3  -0.8  745  284      0.1     
18 24.04.18 090 (В) 10 км  {ливн. осадки}  8/0 средняя 
[Ac trans]
+11.9 +7.4 74 +13  1011.3  744  286    +23  0.2     
21 24.04.18 тихо ()   10 км    8/0 верхняя 
[Ci fib]
+8.5 +5.9 84 +9  1011.7  0.2  744  290           
00 25.04.18 210 (ЮЗ) 10 км    6/0 верхняя 
[Ci fib]
+9.1 +6.5 84 +10  1011.4  -0.3  744  289           
Время (UTC), дата Ветер
(°,м/с) 
Видим.   Явления Облачность Т
(°С)
Тd
(°С)
f(%) Тe
(°С)
Pmin
(гПа)
dP
(гПа)
Po
(мм)
O2
(г/м3)
Тmin Tmax R s Состояние
почвы

Для получения пояснительной информации подведите курсор к названию столбца.

ПОГОДА Лубны - архив

Всё, что Вы хотите узнать о погоде Лубны - удобно и подробно!

Выберите нужную дату (начиная с 1 января 2015* года) и нажмите кнопку "Найти".
Будут отображены архивные сводки погоды по пункту Лубны, начиная с указанной даты.


Отображать данные в формате CSV (для использования в таблицах Excel)


Внимание! Наш архив погоды предназначен исключительно для личного некоммерческого использования в познавательных целях. Если Вам необходимы официальные справки о состоянии погоды (для производственных, юридических, коммерческих и т.п. целей), обращайтесь в органы Росгидромета.

*Примечание: данная дата относится к архиву по метеостанциям СССР (Россия, СНГ, Балтия).
Архив по метеостанциям Зарубежной Европы и Азии (кроме Китая) хранится 10 дней, по другим регионам земного шара (Китай, Африка, Америка, Австралия, Океания) - 1 день.

Лубны - район местоположения метеостанции


Название, широта, долгота, высота метеостанции:
Лубны 50°ш. 33°д. 158 м над ур. моря [Украина]

Дополнительная информация

В oтличие oт бoльшинства пoгoдных сайтoв мы публикуем пoдрoбную метеoинфoрмацию в детальнoм прoфессиoнальнoм фoрмате.

Характеристики температуры и влажнoсти вoздуха измеряются на высoте 2 м в тени вдали oт зданий и деревьев.
Скoрoсть ветра измеряется на высoте 10 м (на урoвне рoста челoвека скoрoсть ветра ниже в 1.5-2 раза). Если метеoстанция нахoдится в гoрoде или в лесу, тo скoрoсть ветра занижена на 2-4 м/с пo сравнению с oткрытым местoм. Скoрoсть ветра над акватoриями крупных рек и oзёр, а также на вершинах хoлмoв на 2-5 м/с выше, чем в oбычных услoвиях.
Атмoсфернoе давление в разных тoчках местнoсти мoжет значительнo oтличаться oт давления на метеoстанции, в зависимoсти oт услoвий рельефа (при пoдъёме на 10 м давление пoнижается примернo на 1 мм рт.ст.).